Weather in Sharanga

Russia / Nizhny Novgorod Oblast'     57°10′37″N   46°32′39″E
temp.,
°C
wind,
m/s
gust,
m/s
humid.,
%
clouds,
%
prec.,
mm/h
press.,
hPa
HPBL,
m
18 october, mon
mon1800:00+7sw41079100 0.1 1010530
03:00+5sw3888100 0.1 1010269
06:00+3sw389589 0.0 1009230
09:00+5sw478485 0.0 1009398
12:00+7ssw4774100 0.1 1007908
15:00+7ssw4874100 0.2 1005990
18:00+6ssw5116881 0.1 1004930
21:00+2w7138599 0.7 10061015
19 october, tue
tue1900:00+4w697196 0.0 1007992
03:00+2wsw49895 0.0 1008383
06:000wsw379768 0.0 1009233
09:00+1w3691100 0.1 1009653
12:00+3wnw3584100 0.4 1010727
15:00+3wnw358099 0.8 1010721
18:00+1nw358499 0.2 1012164
21:00+2wnw247998 0.2 1013169
20 october, wed
wed2000:00+1nw369178 0.1 1014244
03:00−2nw259717 0.1 1015120
06:00−1nw369772 0.0 1016259
09:00+1nw46735 0.0 1017586
12:00+3nw46585 0.0 10171097
15:00+3nw46575 0.0 10181330
18:00−1wnw24785 0.0 101969
21:00−2wnw11825 0.0 101912
21 october, thu
thu2100:00−2ssw22835 0.0 101831
03:00−2s3683100 0.0 1017157
06:00−2s51283100 0.0 1013412
09:00+1s71670100 0.0 1010608
12:000s71688100 0.5 1006655
15:00+2ssw71690100 1.7 1002736
18:00+3ssw61595100 0.0 1001591
21:00+4ssw51498100 0.0 999452
22 october, fri
fri2200:00+6ssw51498100 0.0 997445
03:00+7ssw61696100 1.1 995625
06:00+9sw71689100 0.2 993940
09:00+9wsw71484100 0.2 9931090
12:00+9wsw71484100 0.1 9941189
15:00+10wsw71475100 0.1 9951108
18:00+10wsw8167397 0.1 9971292
21:00+9w81673100 0.1 10001276